Regional Weather Roundup
Issued by NWS

Home | Current Version | Previous Version | Text Only | Print | Product List | Glossary Off
Versions: 1 2 3 4 5 6 7 8 9 10 11 12 13 14 15 16 17 18 19 20 21 22 23 24 25 26 27 28 29 30 31 32 33 34 35 36 37 38 39 40 41 42 43 44 45 46 47 48 49 50

000
ASUS43 KFSD 021802
RWRSD

WEATHER ROUNDUP FOR SOUTH DAKOTA
NATIONAL WEATHER SERVICE SIOUX FALLS SD
1200 PM CST MON MAR 02 2015

NOTE: "FAIR" INDICATES FEW OR NO CLOUDS BELOW 12,000 FEET WITH NO
SIGNIFICANT WEATHER AND/OR OBSTRUCTIONS TO VISIBILITY.


SDZ001>005-009-010-012>017-021900-
NORTHWEST AND NORTH CENTRAL SOUTH DAKOTA

CITY           SKY/WX    TMP DP  RH WIND       PRES   REMARKS
BUFFALO          N/A     33  15  47 SW12      29.76F WCI  24
FAITH            N/A     40  14  34 S28G37    29.87F
MOBRIDGE       SUNNY     33  19  56 S24G32    29.97F WCI  20
$$

SDZ012>016-024>037-041>051-057-063-072>074-021900-
SOUTHWEST AND SOUTH CENTRAL SOUTH DAKOTA

CITY           SKY/WX    TMP DP  RH WIND       PRES   REMARKS
RAPID CTY ARPT MOSUNNY   40  22  48 S21       29.84F
PIERRE         SUNNY     39  15  37 S30G37    30.03F
CUSTER         SUNNY     33  18  53 SW10G22   29.79F WCI  25
ELLSWORTH AFB  PTSUNNY   39  22  51 S17       29.81F
PHILIP         SUNNY     45  15  30 S28G39    29.93F
PINE RIDGE     SUNNY     41  17  38 S26G33    29.92R
SPEARFISH      FAIR      32  16  51 CALM      29.82F
WINNER         CLOUDY    37  13  37 S31G40    30.07F
$$

SDZ004>011-016>023-039-040-021900-
NORTHEAST SOUTH DAKOTA

CITY           SKY/WX    TMP DP  RH WIND       PRES   REMARKS
ABERDEEN       SUNNY     28  16  60 S26G33    30.17F WCI  13
WATERTOWN      PTSUNNY   23  14  68 S20G25    30.23F WCI   8
SISSETON         N/A     28  11  48 S21       30.25F WCI  15
$$

SDZ017-020-022-023-036>040-048>070-021900-
SOUTHEAST SOUTH DAKOTA

CITY           SKY/WX    TMP DP  RH WIND       PRES   REMARKS
SIOUX FALLS    CLOUDY    27  16  63 SE17G25   30.31F WCI  14
HURON          CLOUDY    30  17  58 S21G31    30.20F WCI  17
MITCHELL       CLOUDY    33  14  45 S24       30.24F WCI  20
YANKTON        PTSUNNY   30  12  47 SE18G26   30.31F WCI  18
$$

ABBREVIATIONS USED IN REMARKS
   TC - TEMPERATURE IN CELSIUS
  WCI - WIND CHILL INDEX
   HX - HEAT INDEX
  VSB - VISIBILITY




USA.gov is the U.S. government's official web portal to all federal, state and local government web resources and services.